Location: Plymouth
(43.7490°N, 87.9770°W)
Time: 15:04:36
(UTC-05:00)

Daily predictions for brighter satellites

Satellite Brightness Start Highest point End
(mag) Time Altitude Azimuth Time Altitude Azimuth Time Altitude Azimuth
Cosmos 2369 Rocket 3.6 20:51:27 10° N 20:56:06 25° NE 21:00:41 10° ESE
Cosmos 2058 Rocket 3.3 20:55:07 10° NNW 20:59:29 73° W 21:03:49 10° S
Cosmos 1666 2.7 20:56:41 10° N 21:00:35 74° E 21:04:29 10° SSE
APEX 3.7 20:56:39 10° NNW 21:00:40 81° WSW 21:05:55 10° SSE
Cosmos 2285 Rocket 4.3 20:55:16 10° NNW 21:01:34 73° WSW 21:07:53 10° S
Abrixas rocket 3.4 20:59:40 10° WNW 21:02:49 34° SW 21:05:58 10° SSE
Cosmos 1602 Rocket 3.9 21:00:08 10° SSE 21:04:26 50° E 21:08:47 10° NNE
ERS-1 Rocket 3.1 20:59:36 10° SSE 21:04:37 80° WSW 21:09:40 10° NNW
Atlas Centaur 2 3.9 20:59:05 10° SW 21:04:59 26° SSE 21:11:31 10° ESE
SL-16 R/B 2.7 20:59:35 10° SSW 21:05:12 68° WNW 21:10:52 10° NNE
Meteor 1-15 Rocket 4.3 20:59:45 10° N 21:05:22 88° E 21:11:02 10° S
USA 234 3.7 21:02:12 10° ESE 21:08:37 58° NNE 21:15:02 10° NW
Cosmos 1464 Rocket 4.1 21:03:57 10° N 21:10:06 81° W 21:16:16 10° S
Envisat 3.1 21:06:27 10° SSE 21:11:28 64° ENE 21:16:30 10° N
ATLAS CENTAUR R/B 4.1 21:09:11 10° WSW 21:13:38 31° NW 21:18:06 10° NNE
Cosmos 1812 Rocket 3.9 21:09:32 10° N 21:13:48 48° ENE 21:18:04 10° SSE
deb Chang Zheng 4 3.7 21:10:48 10° NNE 21:15:13 85° WNW 21:19:36 10° SSW
ISS -2.3 21:12:36 10° SSW 21:15:21 25° SE 21:18:07 10° E
PSLV R/B 4.0 21:16:02 10° SW 21:19:18 36° SSE 21:22:36 10° E
GRACE-1 4.0 21:18:43 10° N 21:21:35 61° E 21:24:24 10° S
Cosmos 1939 Rocket 3.0 21:17:35 10° S 21:21:46 82° W 21:25:56 10° NNW
GRACE-2 3.9 21:19:10 10° N 21:22:01 62° E 21:24:51 10° S
H-2A R/B 2.8 21:24:02 10° S 21:28:09 50° W 21:32:25 10° NNW
Lacrosse 5 rocket 3.6 21:25:39 10° W 21:29:02 27° NNW 21:32:36 10° NNE
Cosmos 2034 Rocket 4.2 21:23:00 10° N 21:29:22 77° W 21:35:41 10° S
SPOT 5 2.6 21:25:07 10° SSE 21:29:31 81° ENE 21:33:52 10° NNW
COSMOS 2455 2.9 21:25:10 10° S 21:31:00 55° ESE 21:36:52 10° NE
ALOS 4.4 21:27:37 10° SSW 21:31:22 24° W 21:35:09 10° NW
Cosmos 1515 4.2 21:28:51 11° SSE 21:32:17 40° E 21:35:56 10° NNE
BREEZE-M DEB (TANK) 3.8 21:32:13 10° W 21:34:04 18° SW 21:35:26 12° S
Cosmos 1603 3.6 21:28:38 10° SSW 21:34:15 84° ESE 21:39:53 10° NNE
CZ-4 SHROUD 3.4 21:31:44 11° S 21:34:46 73° WSW 21:37:57 10° NNW
Cosmos 1626 Rocket 3.8 21:32:37 10° SSW 21:37:03 74° W 21:41:29 10° N
YAOGAN 6 2.9 21:39:45 17° SSE 21:42:26 56° ENE 21:46:07 10° N
Cosmos 2228 4.5 21:38:41 10° NNW 21:42:45 37° W 21:46:47 10° SSW
Meteor 2-12 Rocket 4.4 21:37:49 10° N 21:43:58 79° E 21:49:33 12° SSE
Cosmos 1992 Rocket 4.0 21:41:21 10° NNW 21:46:36 71° ENE 21:50:30 18° SSE
Terra 3.3 21:43:54 14° ESE 21:46:47 23° ENE 21:50:29 10° NNE
Cosmos 1346 Rocket 3.6 21:48:51 21° SE 21:50:45 32° E 21:54:16 10° NNE
Cosmos 1953 Rocket 4.1 21:52:36 20° SSE 21:55:16 41° E 21:59:27 10° NNE
Cosmos 1943 3.3 21:52:15 10° S 21:57:45 55° ESE 22:03:18 10° NNE
MetOp-A 4.3 21:55:39 13° S 22:00:27 71° WSW 22:05:50 10° NNW
H-2A R/B 2.9 21:57:40 19° ESE 22:00:32 34° ENE 22:05:04 10° N
Cosmos 1943 Rocket 3.3 21:56:19 10° N 22:01:12 31° NE 22:04:49 16° ESE
Cosmos 2346 Rocket 4.5 21:56:16 11° S 22:02:07 68° E 22:08:13 10° NNE
Lacrosse 4 Rocket 1.9 22:03:03 24° SSE 22:04:43 35° ESE 22:08:28 10° NE
UNK 4.4 22:01:29 10° NNE 22:06:53 75° WNW 22:12:33 10° SSW
Cosmos 1190 Rocket 4.1 22:03:10 12° S 22:08:00 59° ESE 22:13:14 10° NNE
SeaSat 1 3.2 22:04:20 15° S 22:08:09 47° WSW 22:12:56 10° NW
SPOT 1/Viking Rocket 3.6 22:05:20 18° S 22:09:12 81° WSW 22:14:24 10° NNW
Cosmos-2242 4.2 22:06:08 10° NNE 22:09:59 28° ENE 22:11:38 22° ESE
CZ-4B R/B 3.7 22:10:56 10° N 22:16:00 73° WNW 22:21:10 10° SSW
Cosmos 676 Rocket 4.3 22:21:48 25° SSE 22:24:39 50° ESE 22:29:47 10° NNE
Cosmos 1766 3.4 22:21:07 10° N 22:25:07 61° E 22:26:30 37° SE
DELTA 2 DEB (DPAF) 4.1 22:22:58 29° SSE 22:25:17 88° ENE 22:29:48 10° NNW
Cosmos 1758 Rocket 3.4 22:27:03 28° S 22:29:21 79° E 22:33:43 10° N
CARTOSAT-1 3.7 22:31:25 36° SE 22:33:03 63° ENE 22:37:21 10° N
ARGOS 3.6 22:33:16 22° S 22:36:45 59° W 22:42:08 10° NNW
ATLAS 3B R/B 2.9 22:32:36 10° SSW 22:40:19 83° SE 22:47:52 10° NE
Cosmos 2369 Rocket 2.6 22:34:57 10° NNW 22:40:30 57° WSW 22:43:28 27° S
CZ-4C R/B 4.0 22:46:15 30° SSW 22:48:01 51° W 22:52:01 10° NNW
ISS -2.3 22:48:28 10° WSW 22:51:39 47° NNW 22:54:50 10° NE
USA 234 3.7 22:48:30 28° S 22:51:41 48° SW 22:58:02 10° WNW
Cosmos 1470 4.3 22:50:26 10° NNE 22:53:31 22° ENE 22:53:49 22° E
Atlas Centaur 2 3.7 22:46:55 10° WSW 22:53:46 32° S 22:55:21 30° SSE
SL-27 R/B 2.9 22:54:51 43° ENE 22:54:51 43° ENE 22:57:33 10° NNE
Cosmos 407 Rocket 3.8 22:51:27 15° SSW 22:55:52 68° WNW 23:01:06 10° NNE
SL-8 R/B 4.3 22:51:22 10° WNW 22:56:08 56° NNE 22:59:42 17° E
PSLV R/B 4.0 22:53:12 10° W 22:55:53 43° SW 22:55:53 43° SW
Spot 2 4.3 22:52:54 10° NNE 22:57:42 83° ESE 22:59:46 36° S
Cosmos 1805 3.3 22:54:07 10° N 22:58:02 60° E 22:58:32 54° ESE
Cosmos 1842 Rocket 4.0 22:54:15 10° N 22:58:29 46° ENE 22:59:17 41° ESE
Cosmos 1092 Rocket 4.5 22:57:45 33° SE 22:59:55 44° E 23:05:50 10° NNE
Cosmos 1953 2.2 23:02:02 10° N 23:06:02 87° W 23:06:37 64° S
Cosmos 1340 4.2 23:08:08 23° ENE 23:08:08 23° ENE 23:10:36 10° NE
Spot 4 3.9 23:09:15 44° S 23:10:42 71° WSW 23:15:30 10° NNW
COSMOS 2406 3.3 23:09:28 42° SSE 23:11:04 56° ESE 23:16:41 10° NNE
Nadezhda 4 Rocket 4.0 23:08:39 36° S 23:11:20 73° E 23:17:39 10° NNE
Cosmos 2208 Rocket 4.1 23:06:45 10° NNW 23:11:56 67° ENE 23:13:24 45° SE
Cosmos 1954 Rocket 4.1 23:12:38 30° SSW 23:15:22 79° WNW 23:20:42 10° NNE
USA 238 DEB 3.7 23:13:43 28° SSW 23:17:41 65° ESE 23:24:41 10° NE
CZ-4B R/B 3.9 23:17:28 15° ENE 23:17:45 15° ENE 23:19:56 10° NNE
USA 238 3.7 23:13:55 28° SSW 23:17:47 65° ESE 23:24:46 10° NE
Terra 2.6 23:22:47 33° SW 23:24:15 42° W 23:28:48 10° NNW
CZ-4C R/B 3.5 23:26:52 23° E 23:26:52 23° E 23:30:31 10° ENE
Lacrosse 5 4.4 23:22:33 10° NW 23:26:13 20° N 23:29:53 10° ENE
IGS 5A 4.4 23:27:36 33° WSW 23:28:24 36° W 23:32:16 10° NNW
Cosmos 1544 3.1 23:26:23 10° N 23:29:59 74° NE 23:29:59 74° NE
BREEZE-M DEB (TANK) 4.4 23:30:39 10° WNW 23:35:13 - ENE 23:31:28 17° NW
SL-23 DEB 3.8 23:28:01 10° WSW 23:33:07 81° NNW 23:36:30 10° ENE
Cosmos 1741 Rocket 3.9 23:32:36 53° S 23:33:48 76° ESE 23:39:08 10° NNE
Cosmos 2084 3.4 23:30:21 10° NW 23:34:28 68° SW 23:34:32 68° SW
Cosmos 1707 3.6 23:35:25 40° ENE 23:35:25 40° ENE 23:38:38 10° NNE
H-2A R/B 3.3 23:38:18 24° SW 23:39:58 30° W 23:44:23 10° NW
H-2A R/B 3.8 23:36:57 10° NE 23:39:24 25° ENE 23:39:24 25° ENE
Lacrosse 4 Rocket 3.6 23:40:13 10° WSW 23:43:31 24° NW 23:46:53 10° N
Cosmos 2221 3.0 23:40:33 10° N 23:44:45 48° ENE 23:44:51 48° E
Cosmos 1943 Rocket 2.8 23:39:51 10° NW 23:45:04 42° WSW 23:46:20 37° SW
Cosmos 1570 Rocket 4.3 23:43:43 10° NNW 23:48:58 56° WSW 23:50:01 47° SW
Meteor 1-24 Rocket 4.3 23:48:55 41° ESE 23:50:01 45° E 23:55:38 10° NNE
Cosmos 2026 Rocket 4.1 23:49:47 48° SE 23:51:12 60° E 23:57:10 10° NNE
Cosmos 1850 Rocket 4.1 23:50:16 46° SW 23:51:48 74° WNW 23:57:02 10° NNE
Cosmos 2195 Rocket 4.5 23:50:12 49° SSE 23:51:50 69° E 23:58:04 10° NNE
NOSS 3-2 (C) 4.1 23:51:59 36° ESE 23:52:11 37° ESE 23:58:07 10° NE
Cosmos 1689 Rocket 4.0 23:57:02 28° NE 23:57:02 28° NE 23:59:08 10° N
